Location: Eurasberg
(48.3353°N, 11.0839°E)
Time: 10:53:23
(UTC+00:00)

Atlas Centaur 2 - Pass Details

Date: 18 January 2026
Orbit: 456 x 1249 km, 30.4° (Epoch: 11 February)

Event Time Altitude Azimuth Distance (km) Brightness Sun altitude
Exits shadow 05:19:45 - 223° (SW) 2,853 4.7 -16.2°
Reaches altitude 10° 05:22:12 10° 203° (SSW) 2,401 4.5 -15.8°
Maximum altitude 05:24:52 13° 176° (S) 2,295 4.7 -15.4°
Drops below altitude 10° 05:27:47 10° 149° (SSE) 2,669 5.5 -14.9°
Sets 05:32:14 0° 125° (SE) 3,809 7.0 -14.2°
